Regional Weather Roundup
Issued by NWS Goodland, KS

Home | Current Version | Previous Version | Text Only | Print | Product List | Glossary Off
Versions: 1 2 3 4 5 6 7 8 9 10 11 12 13 14 15 16 17 18 19 20 21 22 23 24 25 26 27 28 29 30 31 32 33 34 35 36 37 38 39 40 41 42 43 44 45 46 47 48 49 50

801
ASUS43 KGLD 130959
RWRGLD

GOODLAND FORECAST AREA HOURLY WEATHER ROUNDUP
NATIONAL WEATHER SERVICE GOODLAND KS
300 AM MST SAT FEB 13 2016

...OFFICIAL OBSERVATIONS...

CITY           SKY/WX    TMP DP  RH WIND       PRES   REMARKS
GOODLAND KS    CLOUDY    26  24  92 S20       30.29F WCI  12
HILL CITY KS   CLOUDY    24  19  81 E10       30.43F WCI  14
IMPERIAL NEB   CLOUDY    28  27  96 S18       30.28F WCI  15
MCCOOK NEB     CLOUDY    23  21  92 SE10      30.38F FOG     WCI  12
AKRON CO       CLOUDY    29  29 100 S18       30.16F WCI  16
BURLINGTON CO  FOG       26  24  92 S17       30.25F VSB 3/4 WCI  13
LIMON CO       CLOUDY    27  27 100 S12       30.19F FOG     WCI  17
$$

...UNOFFICIAL OBSERVATIONS...

CITY           SKY/WX    TMP DP  RH WIND       PRES   REMARKS
COLBY KS       CLOUDY    27  27 100 SE16      30.35S FOG     WCI  14
GOVE KS          N/A     24  32 100 MISG        N/A
LENORA KS        N/A     23  32 100 MISG        N/A
NORTON KS      CLOUDY    21  18  86 E10       30.41  WCI  10
SHARON SPRINGS   N/A     25  23  93 SE16        N/A  WCI  12
KIT CARSON CO    N/A     26  24  90 MISG        N/A
YUMA CO          N/A     29  28  95 S5G12       N/A
$$




USA.gov is the U.S. government's official web portal to all federal, state and local government web resources and services.